[Date Prev][Date Next][Thread Prev][Thread Next] - [Date Index][Thread Index][Author Index]

2 Line ISS Keps 3-15



ISS
1 25544U 98067A   05074.20077226  .00021889  00000-0  17607-3 0   164
2 25544 051.6482 021.7369 0003737 192.3196 264.8227 15.70873034360904
----
Via the sarex mailing list at AMSAT.ORG courtesy of AMSAT-NA.
To unsubscribe, send "unsubscribe sarex" to Majordomo@amsat.org



AMSAT Top AMSAT Home